Time,TemperatureF,DewpointF,PressureIn,WindDirection,WindDirectionDegrees,WindSpeedMPH,WindSpeedGustMPH,Humidity,HourlyPrecipIn,Conditions,Clouds,dailyrainin,SoftwareType,DateUTC
2013-07-02 00:01:00,72.0,61.0,29.88,WSW,249,0.0,0.0,69,0.00,,,0.00,,2013-07-02 07:01:00,
2013-07-02 00:11:00,71.0,60.0,29.88,WSW,249,0.0,1.0,69,0.00,,,0.00,,2013-07-02 07:11:00,
2013-07-02 00:22:00,71.0,60.0,29.88,WSW,249,0.0,0.0,68,0.00,,,0.00,,2013-07-02 07:22:00,
2013-07-02 00:33:00,71.0,60.0,29.88,WSW,249,0.0,0.0,69,0.00,,,0.00,,2013-07-02 07:33:00,
2013-07-02 00:44:00,71.0,60.0,29.88,WSW,249,0.0,1.0,69,0.00,,,0.00,,2013-07-02 07:44:00,
2013-07-02 00:52:00,71.0,61.0,29.88,WSW,249,0.0,0.0,71,0.00,,,0.00,,2013-07-02 07:52:00,
2013-07-02 01:02:00,71.0,61.0,29.87,WSW,249,0.0,0.0,71,0.00,,,0.00,,2013-07-02 08:02:00,
2013-07-02 01:11:00,71.0,61.0,29.87,WSW,249,0.0,0.0,70,0.00,,,0.00,,2013-07-02 08:11:00,
2013-07-02 01:22:00,70.0,60.0,29.87,WSW,249,0.0,0.0,71,0.00,,,0.00,,2013-07-02 08:22:00,
2013-07-02 01:33:00,70.0,60.0,29.87,WSW,249,0.0,0.0,71,0.00,,,0.00,,2013-07-02 08:33:00,
2013-07-02 01:44:00,70.0,60.0,29.88,WSW,249,0.0,0.0,70,0.00,,,0.00,,2013-07-02 08:44:00,
2013-07-02 01:52:00,70.0,60.0,29.88,WSW,249,0.0,0.0,71,0.00,,,0.00,,2013-07-02 08:52:00,
2013-07-02 02:01:00,70.0,61.0,29.88,WSW,249,0.0,0.0,72,0.00,,,0.00,,2013-07-02 09:01:00,
2013-07-02 02:11:00,70.0,61.0,29.88,WSW,249,0.0,0.0,74,0.00,,,0.00,,2013-07-02 09:11:00,
2013-07-02 02:22:00,70.0,62.0,29.88,WSW,249,0.0,0.0,77,0.00,,,0.00,,2013-07-02 09:22:00,
2013-07-02 02:33:00,69.0,61.0,29.88,WSW,249,0.0,0.0,75,0.00,,,0.00,,2013-07-02 09:33:00,
2013-07-02 02:43:00,69.0,61.0,29.88,WSW,249,0.0,0.0,76,0.00,,,0.00,,2013-07-02 09:43:00,
2013-07-02 02:52:00,69.0,61.0,29.88,WSW,249,0.0,0.0,77,0.00,,,0.00,,2013-07-02 09:52:00,
2013-07-02 03:01:00,69.0,61.0,29.88,WSW,249,0.0,0.0,76,0.00,,,0.00,,2013-07-02 10:01:00,
2013-07-02 03:22:00,69.0,62.0,29.88,WSW,249,0.0,0.0,78,0.00,,,0.00,,2013-07-02 10:22:00,
2013-07-02 03:33:00,69.0,63.0,29.89,WSW,249,0.0,0.0,80,0.00,,,0.00,,2013-07-02 10:33:00,
2013-07-02 03:43:00,68.0,62.0,29.89,WSW,249,0.0,0.0,80,0.00,,,0.00,,2013-07-02 10:43:00,
2013-07-02 03:52:00,68.0,62.0,29.89,WSW,249,0.0,0.0,80,0.00,,,0.00,,2013-07-02 10:52:00,
2013-07-02 04:01:00,68.0,62.0,29.90,WSW,249,0.0,0.0,81,0.00,,,0.00,,2013-07-02 11:01:00,
2013-07-02 04:11:00,68.0,61.0,29.90,WSW,249,0.0,0.0,79,0.00,,,0.00,,2013-07-02 11:11:00,
2013-07-02 04:22:00,67.0,60.0,29.90,WSW,249,0.0,0.0,78,0.00,,,0.00,,2013-07-02 11:22:00,
2013-07-02 04:33:00,68.0,61.0,29.91,WSW,249,0.0,0.0,79,0.00,,,0.00,,2013-07-02 11:33:00,
2013-07-02 04:42:00,68.0,62.0,29.91,WSW,249,0.0,1.0,80,0.00,,,0.00,,2013-07-02 11:42:00,
2013-07-02 04:52:00,68.0,61.0,29.91,WSW,249,0.0,1.0,79,0.00,,,0.00,,2013-07-02 11:52:00,
2013-07-02 05:01:00,68.0,62.0,29.91,WSW,249,0.0,0.0,81,0.00,,,0.00,,2013-07-02 12:01:00,
2013-07-02 05:11:00,68.0,62.0,29.91,WSW,249,0.0,0.0,81,0.00,,,0.00,,2013-07-02 12:11:00,
2013-07-02 05:23:00,68.0,62.0,29.91,WSW,249,0.0,0.0,81,0.00,,,0.00,,2013-07-02 12:23:00,
2013-07-02 05:43:00,67.0,61.0,29.90,WSW,249,0.0,0.0,81,0.00,,,0.00,,2013-07-02 12:43:00,
2013-07-02 05:52:00,67.0,61.0,29.91,WSW,249,0.0,0.0,81,0.00,,,0.00,,2013-07-02 12:52:00,
2013-07-02 06:01:00,67.0,61.0,29.91,WSW,249,0.0,0.0,82,0.00,,,0.00,,2013-07-02 13:01:00,
2013-07-02 06:11:00,67.0,62.0,29.90,WSW,249,0.0,0.0,85,0.00,,,0.00,,2013-07-02 13:11:00,
2013-07-02 06:21:00,67.0,62.0,29.90,WSW,249,0.0,0.0,85,0.00,,,0.00,,2013-07-02 13:21:00,
2013-07-02 06:43:00,67.0,62.0,29.90,WSW,249,0.0,0.0,85,0.00,,,0.00,,2013-07-02 13:43:00,
2013-07-02 06:52:00,67.0,62.0,29.90,WSW,249,0.0,0.0,85,0.00,,,0.00,,2013-07-02 13:52:00,
2013-07-02 07:01:00,67.0,62.0,29.91,WSW,249,0.0,0.0,83,0.00,,,0.00,,2013-07-02 14:01:00,
2013-07-02 07:11:00,67.0,62.0,29.91,WSW,249,0.0,0.0,83,0.00,,,0.00,,2013-07-02 14:11:00,
2013-07-02 07:33:00,70.0,62.0,29.92,WSW,249,0.0,0.0,77,0.00,,,0.00,,2013-07-02 14:33:00,
2013-07-02 07:43:00,71.0,63.0,29.93,WSW,249,0.0,0.0,75,0.00,,,0.00,,2013-07-02 14:43:00,
2013-07-02 07:53:00,72.0,63.0,29.93,WSW,249,0.0,0.0,74,0.00,,,0.00,,2013-07-02 14:53:00,
2013-07-02 08:02:00,72.0,62.0,29.93,WSW,249,0.0,1.0,71,0.00,,,0.00,,2013-07-02 15:02:00,
2013-07-02 08:11:00,73.0,63.0,29.95,WSW,249,0.0,0.0,71,0.00,,,0.00,,2013-07-02 15:11:00,
2013-07-02 08:33:00,76.0,63.0,29.94,WSW,249,0.0,0.0,65,0.00,,,0.00,,2013-07-02 15:33:00,
2013-07-02 08:44:00,77.0,63.0,29.94,WSW,249,0.0,1.0,63,0.00,,,0.00,,2013-07-02 15:44:00,
2013-07-02 08:53:00,77.0,63.0,29.94,WSW,249,0.0,1.0,61,0.00,,,0.00,,2013-07-02 15:53:00,
2013-07-02 09:01:00,79.0,62.0,29.94,WSW,249,0.0,1.0,57,0.00,,,0.00,,2013-07-02 16:01:00,
2013-07-02 09:11:00,80.0,61.0,29.93,WSW,249,0.0,1.0,52,0.00,,,0.00,,2013-07-02 16:11:00,
2013-07-02 09:21:00,81.0,61.0,29.93,WSW,249,0.0,1.0,50,0.00,,,0.00,,2013-07-02 16:21:00,
2013-07-02 09:43:00,85.0,64.0,29.93,WSW,249,0.0,1.0,49,0.00,,,0.00,,2013-07-02 16:43:00,
2013-07-02 09:52:00,86.0,64.0,29.93,WSW,249,0.0,3.0,48,0.00,,,0.00,,2013-07-02 16:52:00,
2013-07-02 10:02:00,87.0,64.0,29.93,WSW,249,1.0,5.0,47,0.00,,,0.00,,2013-07-02 17:02:00,
2013-07-02 10:43:00,90.0,64.0,29.93,SSW,212,3.0,7.0,43,0.00,,,0.00,,2013-07-02 17:43:00,
2013-07-02 10:53:00,89.0,65.0,29.93,WSW,246,3.0,8.0,45,0.00,,,0.00,,2013-07-02 17:53:00,
2013-07-02 11:01:00,88.0,65.0,29.93,West,264,5.0,9.0,46,0.00,,,0.00,,2013-07-02 18:01:00,
2013-07-02 11:34:00,86.0,63.0,29.94,SW,219,4.0,10.0,47,0.00,,,0.00,,2013-07-02 18:34:00,
2013-07-02 11:43:00,86.0,63.0,29.94,SW,230,4.0,10.0,47,0.00,,,0.00,,2013-07-02 18:43:00,
2013-07-02 11:53:00,87.0,64.0,29.95,WSW,244,6.0,10.0,46,0.00,,,0.00,,2013-07-02 18:53:00,
2013-07-02 12:01:00,87.0,63.0,29.95,SW,234,4.0,9.0,45,0.00,,,0.00,,2013-07-02 19:01:00,
2013-07-02 12:11:00,88.0,63.0,29.95,West,271,5.0,12.0,44,0.00,,,0.00,,2013-07-02 19:11:00,
2013-07-02 12:22:00,87.0,62.0,29.96,West,269,5.0,10.0,43,0.00,,,0.00,,2013-07-02 19:22:00,
2013-07-02 12:33:00,86.0,62.0,29.97,SW,216,5.0,14.0,45,0.00,,,0.00,,2013-07-02 19:33:00,
2013-07-02 12:43:00,86.0,62.0,29.98,SW,234,2.0,13.0,45,0.00,,,0.00,,2013-07-02 19:43:00,
2013-07-02 12:53:00,86.0,62.0,29.98,SSW,202,4.0,11.0,45,0.00,,,0.00,,2013-07-02 19:53:00,
2013-07-02 13:01:00,85.0,62.0,29.98,SSW,213,3.0,11.0,47,0.00,,,0.00,,2013-07-02 20:01:00,
2013-07-02 13:11:00,86.0,60.0,29.98,SW,217,5.0,14.0,42,0.00,,,0.00,,2013-07-02 20:11:00,
2013-07-02 13:33:00,86.0,58.0,29.99,WSW,245,3.0,13.0,39,0.00,,,0.00,,2013-07-02 20:33:00,
2013-07-02 13:43:00,88.0,60.0,29.98,SSW,207,2.0,10.0,39,0.00,,,0.00,,2013-07-02 20:43:00,
2013-07-02 13:52:00,88.0,58.0,29.98,WSW,248,2.0,9.0,37,0.00,,,0.00,,2013-07-02 20:52:00,
2013-07-02 14:01:00,90.0,59.0,29.99,WSW,252,0.0,4.0,35,0.00,,,0.00,,2013-07-02 21:01:00,
2013-07-02 14:11:00,89.0,60.0,29.98,SSW,212,3.0,8.0,38,0.00,,,0.00,,2013-07-02 21:11:00,
2013-07-02 14:22:00,87.0,60.0,29.98,SW,215,3.0,11.0,41,0.00,,,0.00,,2013-07-02 21:22:00,
2013-07-02 14:43:00,87.0,62.0,29.97,WSW,238,1.0,9.0,43,0.00,,,0.00,,2013-07-02 21:43:00,
2013-07-02 14:52:00,88.0,60.0,29.96,WSW,257,3.0,10.0,39,0.00,,,0.00,,2013-07-02 21:52:00,
2013-07-02 15:01:00,88.0,58.0,29.95,SSE,165,2.0,9.0,37,0.00,,,0.00,,2013-07-02 22:01:00,
2013-07-02 15:11:00,89.0,59.0,29.96,WSW,252,2.0,7.0,36,0.00,,,0.00,,2013-07-02 22:11:00,
2013-07-02 15:43:00,92.0,57.0,29.94,WSW,257,0.0,5.0,31,0.00,,,0.00,,2013-07-02 22:43:00,
2013-07-02 15:53:00,92.0,58.0,29.94,WSW,250,2.0,9.0,32,0.00,,,0.00,,2013-07-02 22:53:00,
2013-07-02 16:01:00,92.0,58.0,29.94,WSW,244,1.0,7.0,32,0.00,,,0.00,,2013-07-02 23:01:00,
2013-07-02 16:11:00,92.0,57.0,29.93,SSW,207,3.0,9.0,31,0.00,,,0.00,,2013-07-02 23:11:00,
2013-07-02 16:22:00,92.0,56.0,29.93,WSW,256,4.0,9.0,30,0.00,,,0.00,,2013-07-02 23:22:00,
2013-07-02 16:33:00,92.0,57.0,29.93,WSW,240,1.0,11.0,31,0.00,,,0.00,,2013-07-02 23:33:00,
2013-07-02 16:44:00,92.0,58.0,29.93,West,260,1.0,10.0,32,0.00,,,0.00,,2013-07-02 23:44:00,
2013-07-02 16:52:00,92.0,60.0,29.92,SW,217,0.0,9.0,34,0.00,,,0.00,,2013-07-02 23:52:00,
2013-07-02 17:01:00,90.0,59.0,29.91,SSE,168,2.0,8.0,36,0.00,,,0.00,,2013-07-03 00:01:00,
2013-07-02 17:11:00,90.0,60.0,29.91,WSW,237,1.0,8.0,37,0.00,,,0.00,,2013-07-03 00:11:00,
2013-07-02 17:33:00,90.0,59.0,29.91,SSW,195,1.0,6.0,35,0.00,,,0.00,,2013-07-03 00:33:00,
2013-07-02 17:44:00,90.0,59.0,29.91,SSW,200,0.0,6.0,36,0.00,,,0.00,,2013-07-03 00:44:00,
2013-07-02 17:52:00,90.0,59.0,29.91,WSW,247,0.0,4.0,36,0.00,,,0.00,,2013-07-03 00:52:00,
2013-07-02 18:01:00,88.0,59.0,29.91,WSW,248,0.0,1.0,38,0.00,,,0.00,,2013-07-03 01:01:00,
2013-07-02 18:11:00,88.0,58.0,29.91,WSW,252,0.0,1.0,37,0.00,,,0.00,,2013-07-03 01:11:00,
2013-07-02 18:32:00,85.0,57.0,29.91,WSW,247,0.0,4.0,39,0.00,,,0.00,,2013-07-03 01:32:00,
2013-07-02 18:42:00,85.0,59.0,29.91,WSW,246,0.0,1.0,41,0.00,,,0.00,,2013-07-03 01:42:00,
2013-07-02 18:52:00,84.0,58.0,29.91,WSW,246,0.0,1.0,41,0.00,,,0.00,,2013-07-03 01:52:00,
2013-07-02 19:01:00,83.0,60.0,29.91,WSW,252,0.0,4.0,46,0.00,,,0.00,,2013-07-03 02:01:00,
2013-07-02 19:22:00,82.0,60.0,29.91,WSW,252,0.0,1.0,47,0.00,,,0.00,,2013-07-03 02:22:00,
2013-07-02 19:34:00,78.0,59.0,29.92,WSW,248,0.0,2.0,53,0.00,,,0.00,,2013-07-03 02:34:00,
2013-07-02 19:43:00,76.0,60.0,29.92,WSW,250,1.0,4.0,58,0.00,,,0.00,,2013-07-03 02:43:00,
2013-07-02 19:52:00,75.0,61.0,29.92,SW,236,0.0,5.0,62,0.00,,,0.00,,2013-07-03 02:52:00,
2013-07-02 20:02:00,74.0,61.0,29.92,WSW,238,0.0,4.0,65,0.00,,,0.00,,2013-07-03 03:02:00,
2013-07-02 20:12:00,72.0,62.0,29.93,WSW,238,0.0,4.0,70,0.00,,,0.00,,2013-07-03 03:12:00,
2013-07-02 20:23:00,70.0,61.0,29.93,WSW,238,0.0,1.0,73,0.00,,,0.00,,2013-07-03 03:23:00,
2013-07-02 20:33:00,69.0,61.0,29.93,WSW,238,0.0,1.0,76,0.00,,,0.00,,2013-07-03 03:33:00,
2013-07-02 20:43:00,68.0,61.0,29.93,WSW,242,0.0,5.0,79,0.00,,,0.00,,2013-07-03 03:43:00,
2013-07-02 21:01:00,67.0,61.0,29.93,WSW,243,0.0,0.0,81,0.00,,,0.00,,2013-07-03 04:01:00,
2013-07-02 21:11:00,67.0,61.0,29.93,WSW,243,0.0,0.0,82,0.00,,,0.00,,2013-07-03 04:11:00,
2013-07-02 21:22:00,66.0,61.0,29.93,WSW,243,0.0,0.0,84,0.00,,,0.00,,2013-07-03 04:22:00,
2013-07-02 21:33:00,66.0,61.0,29.93,WSW,242,0.0,0.0,84,0.00,,,0.00,,2013-07-03 04:33:00,
2013-07-02 21:52:00,66.0,61.0,29.93,WSW,243,0.0,0.0,84,0.00,,,0.00,,2013-07-03 04:52:00,
2013-07-02 22:01:00,66.0,61.0,29.93,WSW,242,0.0,0.0,84,0.00,,,0.00,,2013-07-03 05:01:00,
2013-07-02 22:11:00,66.0,61.0,29.93,WSW,242,0.0,0.0,84,0.00,,,0.00,,2013-07-03 05:11:00,
2013-07-02 22:32:00,66.0,62.0,29.93,WSW,243,0.0,0.0,86,0.00,,,0.00,,2013-07-03 05:32:00,
2013-07-02 22:43:00,66.0,61.0,29.93,WSW,242,0.0,0.0,85,0.00,,,0.00,,2013-07-03 05:43:00,
2013-07-02 22:52:00,66.0,61.0,29.93,WSW,243,0.0,0.0,85,0.00,,,0.00,,2013-07-03 05:52:00,
2013-07-02 23:01:00,66.0,61.0,29.93,WSW,243,0.0,0.0,85,0.00,,,0.00,,2013-07-03 06:01:00,
2013-07-02 23:11:00,66.0,61.0,29.92,WSW,243,0.0,0.0,85,0.00,,,0.00,,2013-07-03 06:11:00,
2013-07-02 23:33:00,65.0,61.0,29.92,WSW,243,0.0,0.0,86,0.00,,,0.00,,2013-07-03 06:33:00,
2013-07-02 23:43:00,65.0,61.0,29.92,WSW,243,0.0,0.0,86,0.00,,,0.00,,2013-07-03 06:43:00,